Location: ???????????
(54.5822°N, 39.1075°E)
Time: 14:31:32
(UTC+00:00)

Ariane Rocket - Pass Details

Date: 19 May 2025
Orbit: 755 x 764 km, 98.5° (Epoch: 19 June)

Event Time Altitude Azimuth Distance (km) Brightness Sun altitude
Exits shadow 19:36:58 - 198° (SSW) 2,475 5.2 -12.3°
Reaches altitude 10° 19:37:29 10° 201° (SSW) 2,292 5.1 -12.3°
Maximum altitude 19:42:03 33° 265° (W) 1,258 4.3 -12.6°
Drops below altitude 10° 19:46:39 10° 330° (NNW) 2,313 6.9 -12.8°
Sets 19:49:11 0° 340° (NNW) 3,245 8.4 -13.0°
